Date String (YYYY-MM-DD hh:mm:ss) UTC,Instrument flags,Ambient pressure (hPa),Sample flow (lpm),Bypass flow (lpm),Sample temperature (°C),Ambient temperature (°C),ASC tube jacket temperature (°C),LED temperature (°C),Box temperature (°C),Sample RH (%),Span deviation,Mass concentration (μg/m³),Mass concentration (μg/m³),Mass concentration (μg/m³)
DateTimeUTC,F1_M11,P_M11,Q1_M11,Q2_M11,T1_M11,T2_M11,T3_M11,T4_M11,T5_M11,U1_M11,ZSPAN_M11,X0_M11,X2_M11,X1_M11
2022-10-27 13:00:00,,0822.2,5.00,0.00,25.8,24.1,00.0,34.6,27.7,17.9,0000.0,0001.81,0001.23,0001.01
2022-10-27 13:01:00,,0822.2,5.00,0.00,25.8,24.1,00.0,34.6,27.8,17.9,0000.0,0001.79,0001.23,0001.01
2022-10-27 13:02:00,,0822.2,5.00,0.00,25.8,24.1,00.0,34.6,27.7,17.9,0000.0,0001.76,0001.22,0001.01
2022-10-27 13:03:00,,0822.2,5.01,0.00,25.8,24.1,00.0,34.6,27.7,18.0,0000.0,0001.67,0001.18,0001.01
2022-10-27 13:04:00,,0822.2,5.01,0.00,25.8,24.1,00.0,34.6,27.7,17.9,0000.0,0001.86,0001.23,0001.01
2022-10-27 13:05:00,,0822.2,5.00,0.00,25.8,24.1,00.0,34.6,27.7,17.9,0000.0,0001.89,0001.24,0001.01
2022-10-27 13:06:00,,0822.2,5.00,0.00,25.7,24.1,00.0,34.6,27.7,17.9,0000.0,0001.93,0001.25,0001.01
2022-10-27 13:07:00,,0822.3,5.00,0.00,25.7,24.1,00.0,34.6,27.7,17.9,0000.0,0001.92,0001.26,0001.01
2022-10-27 13:08:00,,0822.3,4.99,0.00,25.7,24.1,00.0,34.6,27.7,17.8,0000.0,0002.01,0001.29,0001.03
2022-10-27 13:09:00,,0822.3,4.99,0.00,25.7,24.0,00.0,34.6,27.7,17.8,0000.0,0002.29,0001.35,0001.05
2022-10-27 13:10:00,,0822.2,5.00,0.00,25.7,24.0,00.0,34.6,27.6,17.8,0000.0,0002.49,0001.42,0001.06
2022-10-27 13:11:00,,0822.3,5.00,0.00,25.7,23.8,00.0,34.6,27.6,17.8,0000.0,0002.49,0001.42,0001.07
2022-10-27 13:12:00,,0822.3,5.00,0.00,25.6,23.8,00.0,34.5,27.5,17.8,0000.0,0002.61,0001.47,0001.09
2022-10-27 13:13:00,,0822.3,5.02,0.00,25.6,23.8,00.0,34.5,27.5,17.8,0000.0,0002.63,0001.49,0001.10
2022-10-27 13:14:00,,0822.3,5.01,0.00,25.6,23.8,00.0,34.5,27.4,17.8,0000.0,0002.62,0001.50,0001.12
2022-10-27 13:15:00,,0822.3,5.00,0.00,25.6,23.7,00.0,34.5,27.4,17.8,0000.0,0002.45,0001.47,0001.14
2022-10-27 13:16:00,,0822.3,4.99,0.00,25.6,23.7,00.0,34.5,27.4,17.9,0000.0,0002.65,0001.49,0001.18
2022-10-27 13:17:00,,0822.4,5.02,0.00,25.5,23.6,00.0,34.5,27.4,17.9,0000.0,0002.86,0001.54,0001.20
2022-10-27 13:18:00,,0822.4,4.99,0.00,25.5,23.5,00.0,34.4,27.3,18.0,0000.0,0002.93,0001.58,0001.22
2022-10-27 13:19:00,,0822.4,5.00,0.00,25.5,23.5,00.0,34.4,27.3,18.0,0000.0,0002.85,0001.56,0001.22
2022-10-27 13:20:00,,0822.4,5.00,0.00,25.4,23.5,00.0,34.4,27.3,18.0,0000.0,0002.61,0001.54,0001.24
2022-10-27 13:21:00,,0822.4,5.02,0.00,25.4,23.5,00.0,34.4,27.2,18.0,0000.0,0002.50,0001.53,0001.25
2022-10-27 13:22:00,,0822.4,5.00,0.00,25.4,23.5,00.0,34.4,27.2,18.1,0000.0,0002.49,0001.54,0001.27
2022-10-27 13:23:00,,0822.4,4.99,0.00,25.4,23.5,00.0,34.3,27.2,18.1,0000.0,0002.39,0001.51,0001.27
2022-10-27 13:24:00,,0822.4,5.00,0.00,25.3,23.5,00.0,34.3,27.2,18.1,0000.0,0002.52,0001.55,0001.28
2022-10-27 13:25:00,,0822.4,5.00,0.00,25.3,23.4,00.0,34.3,27.2,18.1,0000.0,0002.59,0001.59,0001.28
2022-10-27 13:26:00,,0822.4,5.00,0.00,25.3,23.4,00.0,34.3,27.1,18.2,0000.0,0002.94,0001.60,0001.27
2022-10-27 13:27:00,,0822.4,5.00,0.00,25.3,23.4,00.0,34.2,27.1,18.2,0000.0,0003.34,0001.58,0001.26
2022-10-27 13:28:00,,0822.4,5.02,0.00,25.3,23.4,00.0,34.2,27.1,18.2,0000.0,0003.17,0001.57,0001.26
2022-10-27 13:29:00,,0822.5,4.99,0.00,25.3,23.4,00.0,34.2,27.1,18.2,0000.0,0003.14,0001.56,0001.27
2022-10-27 13:30:00,,0822.5,4.99,0.00,25.2,23.4,00.0,34.2,27.1,18.2,0000.0,0003.22,0001.59,0001.28
2022-10-27 13:31:00,,0822.6,4.99,0.00,25.2,23.4,00.0,34.2,27.1,18.3,0000.0,0003.27,0001.60,0001.28
2022-10-27 13:32:00,,0822.6,5.02,0.00,25.2,23.4,00.0,34.2,27.1,18.3,0000.0,0003.19,0001.57,0001.27
2022-10-27 13:33:00,,0822.6,4.99,0.00,25.2,23.4,00.0,34.2,27.1,18.3,0000.0,0003.16,0001.55,0001.26
2022-10-27 13:34:00,,0822.6,4.99,0.00,25.2,23.4,00.0,34.1,27.1,18.3,0000.0,0003.15,0001.54,0001.26
2022-10-27 13:35:00,,0822.6,5.00,0.00,25.2,23.5,00.0,34.1,27.1,18.3,0000.0,0003.06,0001.51,0001.26
2022-10-27 13:36:00,,0822.6,5.01,0.00,25.2,23.5,00.0,34.1,27.1,18.3,0000.0,0003.03,0001.49,0001.26
2022-10-27 13:37:00,,0822.6,4.99,0.00,25.2,23.5,00.0,34.1,27.1,18.4,0000.0,0002.72,0001.50,0001.26
2022-10-27 13:38:00,,0822.6,5.00,0.00,25.2,23.4,00.0,34.1,27.1,18.4,0000.0,0002.12,0001.50,0001.26
2022-10-27 13:39:00,,0822.6,5.00,0.00,25.2,23.4,00.0,34.1,27.1,18.4,0000.0,0002.02,0001.46,0001.25
2022-10-27 13:40:00,,0822.6,5.02,0.00,25.1,23.4,00.0,34.1,27.1,18.4,0000.0,0001.96,0001.41,0001.23
2022-10-27 13:41:00,,0822.7,5.00,0.00,25.1,23.4,00.0,34.1,27.0,18.5,0000.0,0002.97,0001.38,0001.21
2022-10-27 13:42:00,,0822.7,4.99,0.00,25.1,23.4,00.0,34.0,27.0,18.9,0000.0,0002.93,0001.35,0001.20
2022-10-27 13:43:00,,0822.7,4.99,0.00,25.1,23.4,00.0,34.0,27.0,19.0,0000.0,0003.05,0001.37,0001.19
2022-10-27 13:44:00,,0822.7,4.99,0.00,25.1,23.4,00.0,34.0,27.0,18.7,0000.0,0003.10,0001.38,0001.17
2022-10-27 13:45:00,,0822.8,5.00,0.00,25.1,23.4,00.0,34.0,27.0,18.6,0000.0,0003.13,0001.37,0001.15
2022-10-27 13:46:00,,0822.8,5.00,0.00,25.1,23.3,00.0,34.0,26.9,18.7,0000.0,0003.12,0001.36,0001.14
2022-10-27 13:47:00,,0822.8,5.00,0.00,25.1,23.3,00.0,34.0,26.9,18.7,0000.0,0003.08,0001.34,0001.12
2022-10-27 13:48:00,,0822.8,5.01,0.00,25.1,23.3,00.0,34.0,26.9,18.7,0000.0,0003.01,0001.29,0001.11
2022-10-27 13:49:00,,0822.8,5.01,0.00,25.0,23.3,00.0,34.0,26.9,18.7,0000.0,0003.12,0001.30,0001.09
2022-10-27 13:50:00,,0822.9,4.99,0.00,25.0,23.2,00.0,33.9,26.9,18.7,0000.0,0003.27,0001.31,0001.08
2022-10-27 13:51:00,,0822.9,5.00,0.00,25.0,23.2,00.0,33.9,26.9,18.8,0000.0,0003.23,0001.31,0001.07
2022-10-27 13:52:00,,0822.9,4.99,0.00,25.0,23.2,00.0,33.9,26.9,18.8,0000.0,0002.22,0001.32,0001.06
2022-10-27 13:53:00,,0822.9,4.99,0.00,25.0,23.2,00.0,33.9,26.9,18.8,0000.0,0002.17,0001.30,0001.04
2022-10-27 13:54:00,,0822.9,5.01,0.00,25.0,23.1,00.0,33.9,26.8,18.8,0000.0,0002.01,0001.24,0001.03
2022-10-27 13:55:00,,0823.0,5.00,0.00,25.0,23.2,00.0,33.9,26.8,18.9,0000.0,0002.16,0001.25,0001.03
2022-10-27 13:56:00,,0823.0,4.99,0.00,24.9,23.2,00.0,33.9,26.8,18.9,0000.0,0002.36,0001.30,0001.03
2022-10-27 13:57:00,,0823.0,5.00,0.00,24.9,23.1,00.0,33.9,26.8,18.9,0000.0,0002.35,0001.29,0001.03
2022-10-27 13:58:00,,0823.0,5.02,0.00,24.9,23.1,00.0,33.8,26.7,19.0,0000.0,0002.30,0001.27,0001.02
2022-10-27 13:59:00,,0823.0,5.00,0.00,24.9,23.1,00.0,33.8,26.7,19.0,0000.0,0002.29,0001.27,0001.02
